Theta_e
318 317 317 317 317 317 318 318 318 319 319 319 320 320 321 321 321 322 322 321 322 321 321 322 322 322 322 323 323 324 321 324 324 324 321 330 338 357 358 362 356 359 367 357 349 340 337 339 340 343 338 335 334 332 335 334 334 329 327 324 317 318 316 319 319 321 324 321 322 324 324 323 321 323 326 331 329 328 331 331 334 336 337 341 343 347 348 348
317 317 317 317 317 317 317 318 318 318 318 319 319 319 320 320 321 321 321 321 321 321 321 321 322 322 322 322 323 323 322 325 322 320 320 335 356 356 353 363 357 362 367 342 338 337 334 334 338 339 335 331 335 329 335 327 332 324 325 323 315 319 319 325 324 326 325 323 325 326 325 324 323 323 326 326 324 325 327 329 331 332 338 342 345 346 346 347
317 317 317 316 316 317 317 317 317 318 318 319 319 319 319 319 320 320 321 321 320 321 321 321 322 322 322 322 322 322 324 321 323 317 323 354 356 357 356 362 360 364 351 332 336 336 334 335 338 336 333 328 330 325 329 326 328 326 326 318 320 322 323 326 326 325 328 327 324 325 327 324 323 324 328 324 322 325 324 325 328 332 336 339 342 344 345 346
316 316 316 316 316 316 316 317 317 317 318 318 319 319 319 319 319 320 320 320 320 320 321 320 321 322 322 322 322 324 324 326 315 320 339 352 352 358 353 360 362 363 345 332 334 335 338 336 335 333 328 325 324 327 324 326 323 324 322 323 321 324 322 325 325 328 329 330 327 326 326 323 324 324 325 324 321 324 325 328 330 333 337 339 342 343 345 345
316 316 316 316 316 316 316 317 317 317 318 318 318 318 319 319 319 319 319 319 320 320 320 320 321 322 322 322 321 324 325 311 313 326 331 351 358 350 356 357 360 347 341 335 334 335 336 332 329 328 325 320 322 323 323 326 327 325 321 325 324 325 321 325 325 328 328 330 329 327 324 322 328 323 325 323 321 320 325 328 334 336 339 340 341 342 344 344
316 315 315 315 316 316 316 316 317 317 317 317 317 318 318 318 318 318 319 319 319 319 319 321 321 322 322 322 322 323 321 303 319 325 351 352 355 358 353 354 359 344 338 335 332 333 332 329 326 322 322 320 319 318 323 324 327 317 322 323 324 325 322 327 326 326 323 326 327 326 329 326 326 322 327 325 325 325 331 332 336 338 342 342 343 343 343 343
315 315 315 316 316 316 316 316 316 316 317 317 317 317 318 318 317 317 318 318 318 319 320 321 321 322 322 322 325 321 315 315 320 327 352 352 358 358 356 356 360 342 337 333 332 331 329 326 323 320 321 321 320 319 322 323 324 319 316 323 324 326 323 328 326 326 325 324 326 330 331 326 326 319 326 322 327 329 330 334 336 339 342 342 341 341 342 343
315 315 315 315 315 315 316 316 316 316 316 316 317 317 317 317 317 317 317 318 318 319 321 321 321 322 323 324 320 318 321 319 326 333 360 356 353 359 356 336 334 333 334 332 330 328 327 322 320 321 319 318 321 320 322 321 322 317 317 321 322 325 325 327 327 326 326 326 330 330 325 326 325 325 325 323 327 329 330 334 335 339 339 340 341 341 342 343
314 314 315 315 315 315 315 316 315 316 316 316 316 316 317 317 316 317 317 318 318 320 320 321 322 324 324 322 313 307 310 320 333 330 343 339 339 343 336 329 330 328 330 333 331 327 325 322 320 321 316 319 323 321 322 319 315 318 317 321 322 322 325 326 326 325 325 325 328 327 325 327 326 329 322 326 326 329 331 333 335 337 337 337 338 339 341 342
314 314 314 314 315 315 315 315 316 316 316 316 316 316 316 316 316 317 318 318 319 320 320 321 323 324 324 324 316 306 316 326 330 333 331 334 332 333 329 329 328 325 324 327 328 326 323 323 321 322 322 321 324 321 322 320 317 321 320 320 320 321 323 325 324 324 324 323 326 324 324 326 329 323 319 328 326 328 330 331 334 335 336 337 337 338 340 340
314 314 314 314 314 314 315 315 316 316 316 316 315 315 315 316 316 316 317 318 318 320 321 322 325 324 323 324 311 306 323 324 326 327 331 331 331 327 327 328 329 324 324 325 323 325 325 325 325 323 321 318 322 320 320 319 322 321 321 320 320 322 323 324 324 324 323 321 326 325 325 328 328 322 323 326 326 329 329 330 331 333 335 336 336 337 342 340
313 314 314 314 314 314 315 315 315 315 315 315 315 315 315 315 315 316 317 318 318 320 322 324 325 325 325 321 315 314 324 325 327 327 327 327 328 329 330 329 331 327 326 324 326 326 326 325 324 320 313 321 313 319 318 322 320 319 319 314 317 319 318 322 320 322 323 320 324 326 324 323 324 319 327 328 328 328 329 328 329 330 332 335 335 336 340 339
314 314 314 314 314 314 315 315 315 315 315 314 314 314 315 315 315 315 316 317 320 321 323 325 326 326 324 315 317 322 324 326 325 326 326 328 327 327 327 328 330 331 328 325 325 327 325 323 321 317 319 317 316 313 320 322 319 320 318 316 315 315 315 321 323 323 321 321 324 325 312 317 323 325 329 329 327 327 327 326 327 328 331 332 333 334 337 339
314 314 314 314 314 314 315 315 315 314 314 314 314 314 313 313 314 315 317 318 321 322 324 326 326 327 323 315 319 323 326 328 328 327 326 326 325 324 325 325 326 326 329 327 327 326 325 324 321 318 320 316 314 322 318 318 319 313 316 317 311 311 311 320 322 322 319 323 324 324 312 317 323 324 329 330 329 326 325 326 326 327 329 330 331 334 335 338
313 313 314 314 314 314 314 314 314 314 314 314 313 313 312 312 315 316 319 320 322 326 328 327 327 326 320 319 327 328 350 332 325 325 327 324 322 321 322 324 323 324 325 326 326 327 327 324 320 316 313 319 318 315 312 314 316 315 311 308 312 310 313 318 322 322 316 322 325 322 316 317 322 324 329 330 329 328 325 326 327 328 328 330 330 334 335 338
313 313 313 314 314 314 314 314 313 313 314 313 312 312 313 314 317 319 320 322 325 326 328 325 325 326 320 315 320 345 329 323 322 325 327 326 324 319 321 321 324 324 324 324 326 326 326 324 318 316 315 316 313 311 310 310 311 313 310 309 309 311 312 316 320 323 321 322 324 320 314 319 320 326 329 330 329 328 327 326 326 328 328 329 330 333 336 337
313 313 313 313 314 314 314 313 313 313 312 312 311 312 314 316 319 321 322 324 327 328 327 325 329 326 313 322 330 322 321 325 327 326 326 327 324 322 322 323 322 322 323 323 324 323 323 319 320 317 317 312 313 312 307 305 306 309 312 309 312 311 312 311 319 322 321 322 319 322 318 319 323 325 328 330 330 329 328 327 327 327 328 330 330 331 334 337
313 313 313 313 314 314 314 312 313 312 311 310 310 311 312 318 320 318 321 321 328 328 326 329 324 319 317 327 318 317 322 322 324 325 324 325 324 324 324 322 322 321 321 318 322 318 320 315 316 310 312 311 311 309 305 302 305 306 309 309 309 312 314 313 313 319 320 322 319 319 318 320 321 324 327 328 330 329 329 328 328 327 328 330 330 331 333 336
313 313 313 313 313 313 313 313 312 311 311 311 312 316 319 321 323 322 324 325 324 323 315 318 318 303 306 315 324 325 323 324 327 325 322 324 324 324 325 326 322 318 314 313 315 315 317 314 314 309 305 307 308 309 308 309 311 310 311 311 311 310 312 312 317 321 321 318 317 319 315 318 321 323 326 329 330 329 329 331 330 329 328 330 331 330 331 335
313 313 313 313 313 313 313 312 312 310 309 309 312 315 323 322 318 324 323 326 322 320 319 320 322 319 319 320 319 325 328 327 320 323 325 325 323 320 320 322 319 317 314 309 312 313 316 308 305 305 307 309 311 311 312 314 314 313 314 313 312 312 314 317 317 320 322 318 318 319 320 319 320 323 326 328 330 330 329 330 330 331 329 329 330 330 331 335
313 313 313 313 312 312 312 312 311 310 310 311 311 315 310 307 302 302 305 307 311 318 322 321 321 322 321 323 322 322 318 320 322 321 322 326 322 319 315 317 314 310 312 313 311 315 313 306 306 309 310 311 311 313 314 314 314 312 312 312 311 313 312 316 316 320 322 317 316 320 320 320 320 324 325 327 328 328 328 329 331 331 331 331 332 332 332 334
313 313 313 312 312 311 311 311 310 310 309 313 315 316 312 311 312 312 308 301 308 311 311 311 314 313 318 320 323 323 320 316 317 319 324 322 318 313 315 314 312 309 312 312 311 309 306 304 308 311 312 312 312 312 313 312 311 312 311 311 311 312 315 317 317 319 321 318 315 319 317 318 321 323 325 325 326 330 330 331 331 334 333 333 332 333 334 334
313 313 313 312 312 311 310 310 309 309 311 316 316 310 311 316 317 318 313 306 303 310 309 309 308 310 311 316 319 321 313 312 311 318 319 320 316 314 315 312 310 311 312 310 306 306 303 306 310 313 312 310 310 311 311 311 312 311 311 309 308 313 312 309 315 318 319 318 316 318 316 318 322 324 326 327 328 329 332 332 332 333 334 333 332 334 335 334
313 313 312 312 311 310 311 309 308 315 319 314 309 310 317 317 317 316 308 301 301 307 310 312 312 311 310 310 316 316 312 313 313 313 322 319 313 316 313 313 311 310 309 310 308 306 306 310 313 312 312 310 308 310 310 309 309 311 311 311 310 311 313 313 314 316 319 320 320 318 316 316 318 319 321 326 327 329 330 331 332 334 335 335 335 335 337 336
312 313 313 312 311 310 308 307 313 310 311 310 313 318 319 319 319 316 306 304 306 307 316 313 314 314 315 320 319 312 314 314 314 317 319 319 315 314 312 316 314 308 310 311 310 307 308 313 314 311 310 310 309 307 309 309 307 309 312 312 312 314 313 315 315 314 313 313 317 316 308 310 317 319 320 323 325 326 330 331 331 334 334 335 335 336 337 338
312 313 313 312 311 310 308 308 311 309 310 310 314 317 317 315 316 316 307 301 298 307 314 308 317 310 320 313 316 314 315 308 315 316 318 319 321 316 315 312 314 308 311 311 309 309 309 313 313 310 309 309 308 307 310 311 308 307 309 315 314 314 314 314 313 313 308 307 315 319 308 305 315 316 319 322 323 323 329 330 330 333 335 333 333 335 335 336
312 313 312 311 311 309 305 304 309 311 309 310 314 316 315 314 322 313 305 300 298 311 308 314 312 312 318 315 315 315 301 306 316 317 316 320 316 320 311 310 313 314 315 314 310 306 311 311 311 311 310 308 307 306 310 311 308 306 314 315 314 313 312 313 313 312 311 316 316 317 315 308 309 315 321 323 322 322 325 326 330 330 333 332 333 332 337 336
313 312 311 311 310 309 307 309 309 308 309 312 316 315 316 317 317 313 303 294 295 314 307 309 313 318 315 316 316 311 311 317 309 312 317 319 319 316 312 310 310 311 312 311 302 311 312 309 309 309 309 307 305 308 311 311 308 309 314 315 313 313 313 313 313 311 312 311 308 312 316 310 308 316 322 322 319 320 323 325 327 332 333 333 334 334 336 336
312 312 312 311 309 308 311 311 310 308 314 316 316 316 315 317 312 304 299 292 309 311 322 309 322 315 314 317 313 313 312 315 310 315 317 318 319 316 308 311 313 312 314 312 306 310 313 313 312 311 309 306 309 311 311 311 308 312 314 315 315 315 314 314 311 311 311 309 304 310 313 307 307 315 316 320 318 318 321 324 326 329 332 333 332 335 335 336
312 312 311 310 309 311 311 310 308 314 316 317 317 317 314 310 305 298 294 289 308 303 313 314 312 310 314 310 310 312 309 312 315 317 316 314 315 317 316 318 312 312 311 313 311 312 314 318 317 312 309 311 311 312 312 312 312 315 314 312 312 312 312 313 312 311 309 303 306 311 313 310 304 311 314 315 316 319 321 324 326 330 331 333 333 332 332 337
311 310 310 310 306 309 309 305 309 314 315 319 318 314 310 306 298 295 290 300 310 309 315 311 310 315 311 309 306 311 310 312 314 315 311 315 312 314 314 311 314 310 310 310 309 311 312 314 313 314 316 314 314 310 313 313 313 312 310 308 308 308 311 310 309 311 303 301 308 311 311 312 302 308 315 319 322 322 322 321 324 325 330 332 333 332 333 337
309 308 309 309 309 312 306 303 309 311 314 317 313 308 303 293 298 291 294 312 299 307 308 308 312 312 310 312 311 309 307 310 314 312 310 309 309 307 308 305 307 301 301 304 305 311 308 309 313 315 319 314 311 308 309 311 311 309 308 308 303 301 303 300 304 300 300 300 308 312 312 307 308 312 317 319 321 322 324 323 324 325 327 331 332 335 338 338
308 307 307 309 312 312 313 312 313 316 318 316 310 306 298 293 289 296 297 304 301 311 308 313 311 311 311 310 308 311 312 307 313 312 312 311 309 309 310 309 311 307 300 305 305 305 306 311 311 313 314 316 312 305 304 304 307 307 305 305 302 298 298 295 299 303 303 307 311 310 313 306 311 315 319 319 322 324 325 327 326 327 328 331 334 338 337 337
307 307 308 312 314 315 316 319 318 318 315 315 308 301 296 290 290 304 300 302 305 312 312 309 311 311 310 306 309 311 307 311 311 311 312 309 308 306 308 309 310 308 307 306 302 304 300 301 306 310 308 315 312 309 308 307 307 307 309 307 304 302 299 296 299 297 299 303 308 312 307 305 305 309 320 321 324 326 326 326 330 331 329 334 335 337 336 336
306 308 313 315 316 318 320 319 317 317 316 312 302 296 290 290 296 297 300 303 306 308 307 312 309 308 308 309 311 312 311 307 312 311 309 308 305 306 306 306 309 310 309 302 306 306 304 304 310 313 314 314 310 312 313 310 307 309 309 309 304 303 308 300 304 303 303 303 303 307 306 311 309 321 322 324 323 324 325 326 328 329 330 330 332 335 334 335
307 311 313 312 313 315 317 319 319 317 314 307 298 292 290 295 294 301 301 308 308 305 307 309 308 305 305 307 310 310 313 309 310 310 308 309 309 307 310 310 308 309 307 303 307 302 305 302 312 313 314 313 312 313 312 312 300 306 307 302 304 311 309 305 307 308 308 304 302 310 309 312 316 316 318 321 322 323 324 324 324 326 326 329 330 333 334 335
307 310 309 313 314 317 317 320 319 316 313 305 296 291 297 298 302 303 307 305 307 308 306 301 303 303 303 303 306 308 310 311 310 309 305 310 306 310 309 310 313 310 310 310 306 310 304 304 312 312 309 313 316 314 313 313 311 308 302 305 311 313 311 306 299 303 302 299 302 307 305 307 308 305 317 317 318 319 322 322 323 325 328 327 331 333 334 335
307 308 310 312 317 320 318 320 319 315 309 302 295 298 302 298 304 303 306 305 305 306 303 302 304 307 303 304 304 307 309 306 306 308 305 309 305 314 310 310 313 312 312 313 308 308 309 302 309 312 312 313 315 313 310 313 313 307 306 313 304 300 299 306 303 297 297 297 300 305 306 307 309 309 314 314 316 318 321 324 323 323 324 325 333 332 337 339
308 308 305 312 319 319 317 323 317 311 305 298 296 295 300 301 305 304 306 306 306 304 300 302 302 306 306 304 306 309 309 303 307 305 303 307 303 311 311 313 311 313 314 313 308 309 310 302 304 313 312 313 312 310 302 306 311 312 311 308 312 307 304 301 303 305 305 299 299 300 304 303 312 312 315 315 318 320 320 322 321 323 323 325 327 335 338 336
306 302 300 311 318 321 321 317 309 305 300 295 298 298 303 301 304 306 306 305 302 301 301 301 304 302 305 306 307 305 309 308 306 306 306 307 306 313 311 314 311 313 314 314 310 311 306 311 300 308 314 312 304 308 305 306 304 305 305 303 306 307 310 308 307 305 302 300 300 300 299 305 312 317 316 318 323 322 321 323 324 324 325 325 327 329 335 336
306 300 301 311 313 319 317 311 303 297 296 299 301 301 303 302 305 306 307 307 305 308 303 302 302 301 304 304 305 308 307 308 308 306 306 307 307 304 312 313 314 312 314 313 310 310 306 307 302 306 307 306 307 311 311 310 309 307 304 302 304 303 303 299 298 307 306 302 298 299 299 308 314 318 321 321 327 321 323 325 325 324 324 328 328 332 331 336
300 295 300 313 314 315 310 301 301 303 299 295 296 300 300 307 303 304 307 308 306 304 308 304 303 302 302 304 306 307 306 305 307 307 308 306 309 309 312 315 315 315 312 308 308 312 311 309 306 303 305 307 310 313 315 314 313 311 308 305 306 305 306 303 295 301 306 306 307 305 302 305 318 326 325 322 323 321 324 324 324 324 325 326 328 328 333 338
299 296 308 310 312 308 303 297 300 299 297 300 303 302 303 302 302 305 304 306 304 307 304 303 303 302 303 302 305 306 307 304 306 305 308 309 309 312 313 314 315 314 313 311 312 313 324 306 303 305 310 311 313 315 315 315 313 309 310 309 307 303 305 304 304 306 303 304 302 302 301 305 316 339 329 322 335 323 325 325 329 324 324 326 327 328 336 342
299 299 301 309 310 308 300 292 292 294 296 299 300 300 303 302 302 301 301 304 304 304 303 303 304 305 302 305 304 302 305 300 306 306 306 309 309 315 314 314 315 312 312 311 309 313 306 308 305 301 302 304 306 310 310 312 311 308 307 309 309 308 307 307 307 311 304 303 304 302 298 304 315 322 337 328 322 320 321 323 324 324 327 326 329 342 337 343
299 301 301 304 309 306 295 297 295 294 295 295 296 297 300 301 303 302 302 302 305 305 304 303 304 305 304 305 303 304 305 303 301 307 308 308 309 315 314 314 315 313 315 316 344 317 308 307 305 298 296 295 295 297 299 302 305 308 309 309 309 308 307 304 300 304 298 310 310 303 303 311 317 321 321 322 322 327 326 323 322 326 340 328 332 339 345 344
295 290 297 300 303 303 302 302 300 297 295 296 296 298 300 297 301 304 304 302 304 305 305 305 306 306 303 303 301 300 301 304 302 302 305 306 308 312 313 314 314 314 322 331 325 317 310 310 309 306 303 301 304 309 310 310 308 304 306 307 307 308 309 307 306 302 298 304 305 309 310 310 314 315 319 318 320 321 323 324 324 328 329 335 346 352 348 346
299 292 294 292 299 300 299 301 299 299 295 299 293 297 296 297 298 299 303 300 305 304 304 303 304 302 301 301 300 300 301 301 304 303 302 304 308 311 314 313 314 317 331 324 321 316 313 307 308 312 308 307 310 310 310 311 307 307 306 306 307 307 308 306 303 300 309 305 298 308 318 310 310 314 320 321 319 321 324 329 324 328 337 338 329 341 355 352
291 295 298 301 292 290 293 294 298 297 299 299 295 297 295 296 296 293 298 302 305 306 299 301 302 304 304 301 301 297 300 301 302 299 303 304 306 310 310 313 312 320 321 314 316 313 309 305 309 308 307 308 309 310 312 310 309 309 308 307 307 307 307 305 306 307 310 302 299 309 317 315 314 313 315 320 327 324 320 323 325 327 327 337 357 343 350 349
299 299 298 302 294 296 296 297 298 296 295 296 295 295 293 294 293 295 296 297 299 298 299 293 296 298 300 303 300 298 301 297 297 302 302 303 304 305 305 309 312 314 313 312 313 318 311 306 309 310 308 308 309 308 310 310 310 309 308 308 308 308 307 306 306 307 307 309 310 310 318 313 312 313 316 318 322 321 325 332 327 327 324 331 351 336 332 344
294 295 293 299 297 295 296 297 296 296 294 297 292 294 293 293 293 295 297 296 293 295 299 295 295 296 298 299 300 299 300 300 302 299 303 303 303 305 304 307 307 311 311 309 310 314 308 306 310 309 307 307 309 310 310 309 309 308 309 309 309 308 308 308 307 307 308 307 307 307 310 311 313 319 318 319 321 321 323 322 321 325 326 324 327 333 328 331
300 302 301 295 291 293 296 295 294 294 293 295 293 294 293 293 292 296 295 299 296 293 295 293 295 296 298 299 299 299 300 300 300 301 302 302 300 306 304 305 309 307 308 307 308 309 309 306 309 308 304 305 308 308 309 309 308 308 307 308 308 308 307 308 306 309 307 308 310 307 307 308 313 317 316 320 321 320 319 321 323 330 326 328 326 324 327 336
304 305 304 300 290 296 293 295 295 293 290 295 295 295 294 294 296 296 293 298 299 299 298 297 297 295 295 295 295 297 300 301 302 304 304 305 307 309 311 310 309 307 307 306 309 305 307 305 304 305 302 303 308 309 308 308 307 303 304 307 309 310 310 310 311 312 310 309 306 305 306 314 318 321 317 318 316 320 320 319 321 323 334 330 328 329 327 333
Wind_Speed
22 22 22 22 22 22 22 23 22 23 24 23 23 23 23 23 22 22 22 22 22 22 21 22 21 20 20 20 20 20 20 11 16 14 14 16 15 10 9 6 12 13 11 8 11 13 14 14 16 14 11 9 9 11 11 13 8 6 6 3 9 5 11 7 3 4 7 5 7 8 9 9 8 6 8 9 11 10 10 11 8 9 10 17 20 20 20 20
22 22 22 22 22 22 23 22 21 23 23 22 22 22 23 23 22 22 23 23 22 22 22 21 22 21 21 20 19 18 17 13 14 20 22 7 8 10 10 9 11 12 12 11 13 15 14 15 15 14 12 11 9 11 11 8 8 8 6 6 7 8 4 14 5 8 5 7 7 5 7 8 9 7 7 9 11 9 12 11 9 13 17 22 20 21 21 20
22 22 22 22 22 22 23 23 22 23 22 21 21 22 22 22 23 23 23 23 23 23 23 22 21 21 21 20 18 16 14 12 15 19 18 15 12 10 9 10 10 12 15 14 14 14 14 14 15 14 12 11 10 12 12 9 11 8 9 1 9 13 12 11 2 3 3 7 8 7 5 10 7 8 7 8 9 10 12 10 12 14 19 21 21 21 20 19
23 23 22 22 22 23 23 23 23 23 21 21 22 22 22 22 23 23 23 23 23 23 23 22 21 21 20 20 15 15 10 13 16 7 11 11 13 11 10 10 10 12 14 15 14 14 13 12 12 13 11 12 11 13 11 6 7 9 8 10 3 5 5 9 1 3 5 5 7 7 4 10 8 9 9 12 10 10 11 10 12 17 18 20 21 21 20 20
23 23 23 23 23 23 23 23 23 22 21 21 22 22 22 23 23 23 23 23 23 23 23 22 21 21 20 17 16 10 10 12 3 12 9 11 10 10 9 11 11 12 16 14 14 14 13 14 13 12 11 10 12 12 10 10 8 5 7 2 4 7 7 5 4 5 4 2 8 8 8 8 8 5 7 11 8 9 10 12 15 17 19 19 20 21 19 20
23 23 23 23 22 22 22 22 22 22 22 22 22 22 22 22 23 24 24 23 23 23 22 22 21 21 20 16 13 9 5 4 3 6 10 9 11 9 11 10 11 11 12 15 14 13 14 14 14 11 10 11 12 12 11 11 10 10 6 10 9 5 2 11 2 5 3 8 6 5 6 9 8 7 4 9 5 7 15 14 17 17 20 19 18 19 19 20
23 24 23 22 22 22 22 22 22 23 22 22 23 22 23 23 22 22 23 24 23 22 22 21 21 21 18 17 12 7 10 15 16 5 13 11 9 10 10 9 8 10 12 13 15 14 14 14 14 13 11 12 13 13 16 15 17 10 7 9 12 11 14 12 4 2 3 3 8 6 8 7 7 10 4 8 5 14 15 17 18 17 19 19 20 18 18 19
24 23 24 23 23 23 23 23 23 23 23 23 23 23 23 24 22 22 23 24 23 23 21 20 20 18 15 11 6 8 11 14 15 12 8 9 9 9 12 10 11 10 13 16 15 16 13 16 15 13 13 12 9 13 11 15 13 10 12 10 7 6 8 6 7 6 3 4 7 8 7 7 5 6 8 10 7 13 15 18 18 19 19 19 19 19 18 18
24 23 22 23 23 23 24 24 24 24 24 24 24 24 24 23 23 22 22 23 23 23 22 19 18 14 9 6 7 11 13 15 13 15 15 12 12 12 12 9 12 12 13 14 16 15 14 13 15 14 12 14 14 16 13 11 9 12 14 8 11 10 7 8 6 7 12 6 7 9 7 9 7 12 9 12 9 7 16 17 17 18 19 18 19 19 18 17
22 22 22 23 24 24 25 25 24 25 25 26 25 25 24 25 23 22 22 22 22 23 21 19 16 11 9 6 9 10 12 5 11 15 15 15 13 12 12 10 13 12 12 14 14 16 16 11 14 14 16 16 13 14 14 14 11 10 13 15 9 9 9 8 8 10 14 11 12 10 9 10 9 7 8 11 13 8 16 16 17 18 18 18 16 16 17 17
22 22 23 24 25 25 25 25 26 26 26 26 27 26 26 24 23 23 23 22 22 22 20 16 12 10 8 8 8 12 4 6 7 6 13 9 12 11 11 12 13 12 13 12 15 16 15 15 12 9 11 11 11 15 14 13 14 17 16 10 11 10 6 6 13 12 5 8 14 9 8 9 12 6 8 11 14 11 16 16 17 17 16 16 17 17 14 13
23 23 23 25 25 25 26 26 27 27 28 28 28 27 26 26 25 23 22 22 22 20 17 14 9 6 8 10 12 15 9 12 7 5 6 8 10 10 12 11 13 12 13 13 14 14 14 14 14 13 10 8 13 14 15 15 15 17 15 12 10 6 8 13 11 8 13 11 10 10 10 9 11 7 10 14 14 13 15 15 16 16 15 16 16 16 14 14
23 24 24 25 26 26 26 26 26 28 28 29 29 27 28 26 25 24 22 22 17 15 13 10 7 6 7 10 17 21 20 14 13 14 10 9 10 10 10 11 11 13 13 13 12 12 13 13 14 16 15 13 11 11 8 15 12 13 13 11 12 12 13 13 10 12 11 8 9 11 9 8 11 6 9 17 14 14 15 15 15 14 15 14 14 14 14 14
25 25 25 26 26 27 27 26 28 28 28 29 28 28 28 28 27 24 22 20 20 17 13 9 7 7 8 12 10 12 15 15 18 16 14 10 11 12 13 13 12 12 11 13 13 10 13 12 14 15 12 15 13 12 16 13 11 10 12 10 10 9 9 8 8 11 9 6 11 12 6 7 10 10 9 16 14 14 14 15 15 15 15 14 14 14 14 15
25 26 28 27 28 27 27 27 27 27 28 28 28 28 29 30 27 22 19 16 14 12 11 7 7 6 8 11 14 24 25 19 16 13 11 13 13 12 14 14 15 14 13 13 11 11 10 13 14 13 12 13 15 17 14 12 10 11 10 12 11 11 7 6 9 9 10 12 12 12 6 6 9 12 12 14 14 14 15 16 15 15 14 15 14 15 15 15
24 27 28 28 28 29 28 28 27 28 28 27 30 30 31 26 24 19 16 12 11 9 5 5 8 11 10 14 7 2 11 16 17 16 14 14 13 14 14 15 13 14 14 13 10 8 11 12 13 12 12 13 15 13 12 11 11 12 11 9 12 11 9 8 12 11 10 10 10 13 7 11 9 11 14 15 14 15 14 16 15 16 17 16 14 14 14 14
25 27 28 28 28 29 30 28 29 30 30 30 30 31 28 24 19 12 10 10 6 7 7 5 7 11 6 1 5 9 9 13 12 12 12 13 14 14 14 12 13 14 14 13 12 11 12 13 8 11 13 12 13 13 13 13 12 10 10 11 12 13 11 7 9 11 13 10 10 13 9 7 12 15 15 16 15 15 15 15 16 15 14 15 14 14 15 14
25 27 28 28 29 29 29 29 29 30 31 32 32 30 24 22 13 5 8 7 6 6 9 11 10 8 17 18 14 14 11 10 10 8 11 11 14 13 14 11 10 13 13 13 13 14 13 12 11 12 11 14 14 14 14 14 12 10 11 12 12 16 11 10 7 10 12 14 12 13 12 7 8 15 15 16 15 15 14 14 16 15 16 15 15 14 16 15
27 27 27 28 28 29 29 30 30 30 30 30 31 27 24 12 4 7 5 7 6 4 5 9 9 10 4 5 14 13 11 9 7 8 11 11 12 12 12 8 10 13 13 13 11 16 12 11 12 12 15 15 17 16 17 17 15 16 14 13 13 11 8 8 12 12 13 13 12 11 12 10 7 14 15 14 14 14 13 14 14 15 15 15 14 14 14 15
25 25 27 29 28 27 28 29 30 30 28 24 18 15 7 3 3 4 6 9 12 12 14 7 16 14 18 19 11 3 4 12 9 10 10 10 7 11 12 11 13 13 14 13 13 17 11 14 14 16 15 16 19 21 20 19 18 18 17 16 14 12 9 9 13 14 16 12 13 12 13 12 10 9 11 12 14 13 14 14 14 14 14 15 15 15 15 15
23 25 26 28 29 28 28 30 30 30 27 17 15 10 8 10 10 7 13 13 16 19 19 21 19 18 18 14 13 9 10 11 11 12 12 8 11 8 12 11 14 13 14 15 13 12 14 15 17 18 19 19 19 21 22 19 19 21 17 15 12 11 10 10 15 14 16 13 11 13 13 13 13 11 10 5 10 15 15 14 14 15 15 14 15 16 15 14
23 25 25 28 31 30 30 31 32 30 28 12 7 7 10 8 7 9 11 14 12 14 19 23 21 23 20 21 19 18 13 11 17 14 11 10 12 11 10 14 15 14 13 14 14 13 15 18 17 20 19 19 20 20 21 21 20 20 17 15 13 10 11 13 18 13 15 14 10 15 15 12 13 12 12 15 18 13 14 14 14 12 13 12 14 15 14 14
24 23 24 27 30 32 31 32 32 33 12 6 7 10 8 8 8 8 9 14 21 19 23 24 23 25 22 18 18 17 19 17 14 17 15 13 13 15 11 14 14 14 15 17 15 14 15 16 20 18 18 19 20 21 21 23 21 16 15 15 14 12 11 10 13 13 17 12 9 13 13 10 14 13 18 18 16 14 14 16 15 15 14 12 15 15 14 15
25 24 24 25 28 32 33 32 34 19 5 10 15 12 8 7 8 10 12 8 14 18 18 20 22 21 22 19 14 19 20 15 15 14 15 14 15 13 15 15 16 15 15 18 20 17 15 12 17 19 20 21 21 22 22 18 16 18 19 16 15 16 12 11 8 10 16 14 10 9 10 10 11 12 14 16 19 17 16 15 15 14 16 15 15 16 15 15
25 24 24 25 25 31 34 34 12 10 16 16 8 8 6 6 7 10 10 10 10 12 13 19 14 17 17 15 16 17 17 15 18 15 12 16 16 13 14 12 12 15 17 18 19 20 19 17 15 20 21 21 21 19 21 17 15 16 22 21 18 16 16 14 14 12 9 9 10 9 7 10 10 14 15 14 14 16 15 16 15 12 13 13 14 14 15 16
26 26 24 23 25 26 36 15 6 16 19 10 9 10 10 9 9 9 8 6 11 10 9 12 12 13 12 17 15 16 15 17 18 15 15 15 15 14 9 13 10 15 18 19 16 12 15 16 17 18 20 21 22 19 20 20 15 16 15 21 23 21 16 14 16 14 11 10 11 13 11 9 10 15 14 14 15 16 13 14 16 14 11 15 13 13 15 17
27 26 24 22 23 21 15 5 14 18 13 4 12 11 11 10 6 11 7 7 10 6 13 7 14 6 10 16 17 14 13 13 13 17 19 17 18 14 15 13 12 11 11 10 10 13 13 19 19 19 19 20 19 19 19 21 17 15 15 18 21 23 23 18 17 13 9 11 12 15 12 10 9 11 13 14 14 13 15 14 15 16 15 15 15 16 13 15
28 26 24 22 23 18 9 13 15 13 12 13 13 12 11 8 9 8 5 6 5 7 9 6 2 5 7 13 17 15 14 3 14 18 21 17 17 17 17 16 15 15 15 12 16 11 15 17 20 20 19 16 18 17 18 22 18 13 16 19 19 21 21 21 16 13 12 11 10 14 16 11 10 8 12 14 16 17 18 17 19 16 17 16 14 16 16 16
25 25 25 23 23 29 19 9 10 15 12 13 13 12 9 10 9 5 5 8 5 5 6 10 1 7 6 12 17 17 17 10 10 16 20 19 20 13 15 19 17 17 17 18 14 12 13 16 19 19 15 16 16 18 19 20 19 18 17 16 17 18 20 20 16 15 13 11 10 10 12 9 9 8 10 13 15 17 18 19 20 19 18 17 15 14 17 15
26 25 25 22 20 12 7 10 14 19 17 15 12 11 13 10 7 6 7 11 3 7 10 6 10 12 14 15 14 18 19 12 10 10 18 16 20 18 13 13 17 16 16 18 19 16 15 14 16 13 15 15 17 19 21 20 20 15 17 17 17 17 15 16 16 14 11 12 12 17 16 13 11 12 14 13 12 14 15 15 15 15 18 17 16 18 15 12
25 26 23 20 12 8 11 11 13 5 9 8 10 13 9 6 6 7 13 6 4 6 9 7 12 14 17 18 13 17 19 15 14 12 14 15 17 18 13 13 14 14 14 14 16 19 20 17 15 13 15 14 15 14 16 19 19 20 14 15 14 14 14 12 12 14 14 13 13 18 17 17 14 10 15 16 15 17 17 17 18 19 18 15 14 17 16 12
26 28 26 18 17 10 9 10 11 14 10 11 12 9 6 8 8 14 10 4 10 8 13 10 14 13 19 18 14 17 16 18 13 14 14 14 15 16 17 14 13 13 15 14 14 15 19 19 14 15 15 22 16 15 15 18 18 17 16 13 14 10 9 12 10 14 14 13 13 18 18 16 16 13 11 15 18 19 18 15 17 20 19 16 17 15 12 12
26 27 33 22 16 10 16 18 15 11 11 10 9 7 8 8 14 14 13 9 5 5 9 13 12 16 16 17 17 17 19 17 16 16 17 17 15 17 20 19 15 15 12 14 14 13 14 17 21 16 14 16 17 15 14 15 14 16 16 14 13 13 13 10 12 9 11 15 17 17 18 17 13 13 19 16 16 17 16 12 14 17 15 15 15 14 16 17
26 29 19 17 14 14 12 13 12 12 9 7 7 6 10 12 17 5 17 16 14 5 6 3 8 16 16 15 15 15 16 18 18 15 18 14 17 15 17 22 21 18 15 11 14 14 12 15 20 20 12 14 18 17 15 12 14 17 16 17 14 12 10 13 11 15 15 11 12 19 17 10 16 7 12 20 17 14 14 14 12 13 15 11 17 17 17 17
31 28 19 17 14 15 18 15 12 10 8 7 7 11 14 18 9 12 12 12 13 21 21 9 11 12 16 17 16 19 16 14 20 18 18 17 16 16 16 18 24 20 14 14 11 11 20 14 12 21 14 15 19 18 15 16 15 16 16 15 17 17 10 14 11 14 11 12 15 14 14 9 12 5 5 8 17 16 15 15 12 11 13 17 19 21 19 18
24 12 15 13 13 11 12 12 12 11 8 8 10 13 20 13 10 10 10 9 13 13 15 19 17 14 14 14 16 19 22 16 21 18 17 20 18 18 19 15 20 24 16 15 9 12 12 14 13 18 24 19 18 17 18 16 14 12 15 18 18 14 15 12 16 17 14 13 14 10 12 12 10 14 17 8 8 12 15 17 17 15 17 17 11 18 19 17
14 17 12 14 15 14 11 7 8 9 9 10 12 18 14 12 18 14 8 13 13 13 15 15 13 14 13 13 13 19 17 19 16 17 14 19 18 21 19 19 19 25 25 14 13 13 10 11 15 16 23 23 17 17 18 20 18 11 15 15 15 17 16 12 13 9 12 13 12 15 15 12 13 10 17 19 16 14 14 15 17 16 15 15 12 21 18 18
16 15 18 20 21 15 13 8 8 8 9 11 17 21 9 16 13 18 17 20 17 17 15 14 11 16 15 16 14 17 18 16 16 17 15 17 12 19 20 16 22 20 25 24 14 11 13 12 12 20 18 19 20 18 18 21 24 22 15 13 16 15 19 13 11 15 15 15 10 12 16 15 15 12 11 20 20 16 13 12 15 15 17 15 11 20 17 19
14 13 12 10 5 5 7 5 7 8 11 13 16 15 14 18 17 18 15 18 17 18 16 16 14 12 16 14 16 17 18 17 16 17 15 13 15 17 22 16 18 24 23 25 18 13 11 12 10 13 18 16 18 16 17 18 22 25 22 18 15 13 11 14 13 9 10 14 14 14 16 12 13 12 13 14 19 17 17 16 17 20 18 14 12 18 19 20
10 9 11 11 4 5 5 6 7 10 11 17 14 15 10 14 16 20 25 23 17 14 14 17 18 17 16 17 17 15 16 21 18 16 17 10 15 14 20 22 16 21 24 25 18 17 13 9 11 9 17 15 16 15 19 15 16 17 18 18 14 12 11 13 13 14 12 11 13 10 14 11 11 11 14 14 9 15 16 13 13 13 14 17 17 18 20 16
10 8 10 16 15 3 4 8 11 12 14 13 18 17 16 14 14 16 20 25 20 17 19 17 14 14 14 15 17 18 14 16 18 16 15 16 15 12 16 16 18 18 21 23 22 17 12 11 12 11 13 16 15 17 18 18 15 15 16 17 18 15 15 17 16 15 16 12 8 11 14 9 11 12 9 10 5 14 14 13 13 17 18 14 13 7 15 12
10 9 9 8 8 1 9 11 11 12 12 15 14 13 14 14 20 21 20 17 22 18 16 19 22 20 18 19 17 14 15 16 15 18 16 16 17 16 11 19 17 20 15 17 17 17 13 8 12 14 14 13 18 18 21 20 18 18 16 18 19 18 15 12 11 11 12 14 16 16 13 11 7 5 7 10 8 15 14 13 14 16 17 18 18 13 20 19
9 12 15 26 20 17 13 15 13 14 14 13 16 21 21 20 17 15 19 20 20 17 18 19 19 18 19 18 17 18 18 14 18 16 16 21 20 21 17 19 22 20 19 13 20 16 14 12 12 12 12 16 14 17 16 20 20 18 18 17 18 20 21 16 12 11 13 14 16 15 15 10 9 3 6 10 4 7 11 11 8 13 16 19 21 16 17 12
11 12 14 17 19 15 14 16 14 14 14 17 20 22 18 18 18 19 19 19 16 15 19 15 19 23 19 18 17 18 15 14 16 22 16 17 17 21 23 22 21 15 16 11 13 15 13 12 12 10 10 11 15 15 19 17 17 14 15 16 19 20 24 23 18 9 14 18 19 13 13 10 11 9 3 8 9 14 16 15 13 13 11 16 12 9 16 14
11 12 15 14 15 12 15 13 16 14 16 18 18 19 19 19 17 23 21 20 20 20 16 18 18 14 18 19 21 19 20 19 12 15 20 17 16 15 21 25 21 17 15 10 7 12 15 11 13 14 15 15 15 15 16 16 17 14 16 18 20 23 24 20 20 13 10 7 14 12 11 10 11 14 13 13 11 7 5 6 12 12 4 7 7 15 16 15
8 11 9 11 9 11 15 15 16 16 16 18 16 13 15 14 14 15 22 25 25 22 20 19 19 18 19 19 21 22 22 20 19 12 13 14 15 11 16 24 22 19 17 3 4 11 11 13 13 14 14 13 13 8 8 13 14 17 19 21 21 21 22 21 13 15 16 9 11 9 11 11 10 17 16 18 16 9 12 12 10 9 8 6 2 7 9 14
6 9 8 9 10 10 11 10 15 16 12 9 6 8 16 16 15 17 20 14 9 15 19 22 19 20 16 17 18 19 22 23 22 22 21 19 15 14 20 21 15 17 18 7 2 8 9 13 18 17 21 19 13 15 18 16 17 18 20 21 22 22 21 22 19 17 12 11 12 10 8 14 15 14 8 12 14 13 9 7 11 8 3 3 10 4 13 12
7 8 12 9 11 9 15 12 12 7 5 12 11 11 16 17 15 14 16 16 16 10 11 11 22 22 22 20 14 15 16 20 20 21 21 20 17 18 19 20 20 19 20 15 9 10 10 12 16 20 22 24 25 19 17 17 16 16 18 19 21 22 23 23 19 21 15 13 16 11 11 11 10 18 19 10 7 11 11 10 10 10 8 5 2 6 12 13
10 9 12 12 12 11 14 18 21 19 17 14 11 11 14 16 17 14 12 12 13 11 13 12 16 20 21 21 17 14 15 16 17 19 18 15 20 16 15 17 23 18 20 17 14 6 8 12 14 15 18 22 23 25 23 20 17 19 22 21 19 20 22 23 23 21 24 16 15 14 8 13 15 17 20 18 13 12 7 5 7 10 13 9 7 11 10 8
9 8 7 10 12 13 15 15 15 17 15 13 12 10 10 13 18 17 14 10 9 13 10 10 16 20 19 21 17 11 17 19 19 14 13 21 20 17 16 16 12 20 14 15 13 9 9 8 11 13 12 16 20 22 24 25 20 19 20 18 19 20 23 22 21 23 22 23 25 20 14 14 14 11 15 17 17 15 11 10 14 14 15 17 13 13 17 17
9 8 7 9 13 10 10 14 14 13 13 11 11 13 12 13 17 17 17 14 14 14 10 11 14 17 17 16 19 16 21 24 25 24 25 21 13 14 15 12 19 15 23 16 15 13 14 10 11 11 12 13 17 23 24 23 23 22 21 21 23 25 24 23 18 15 17 14 12 19 16 14 11 14 15 13 14 17 19 15 12 8 13 14 15 17 16 12
7 8 11 5 9 12 12 13 15 14 13 11 11 12 12 15 15 13 13 12 16 12 14 11 11 11 15 15 16 19 23 24 26 25 20 20 20 20 19 19 17 16 12 19 15 16 12 12 12 11 14 14 14 15 17 18 19 20 24 24 23 21 19 16 11 17 20 18 16 13 10 7 8 8 12 12 15 14 16 16 14 15 8 9 11 11 14 12
Wind_Direction
353 352 351 349 348 347 346 343 341 340 338 337 336 335 334 332 329 328 327 326 324 323 320 319 321 321 319 319 321 321 320 313 301 289 245 241 258 126 146 110 155 177 173 188 213 189 189 203 212 210 226 233 226 233 249 246 230 214 125 97 281 235 249 296 111 156 111 128 133 170 128 122 116 139 120 135 122 118 146 122 118 130 134 125 134 141 142 142
352 352 350 348 347 345 344 342 340 338 337 335 334 332 331 328 326 325 325 323 322 320 319 318 318 319 320 319 319 321 320 295 282 277 269 264 169 150 149 172 170 168 180 205 210 201 196 199 210 212 226 232 231 245 228 232 226 227 118 162 262 289 342 275 23 112 161 127 157 119 134 141 114 134 167 142 123 145 127 125 137 118 116 121 136 141 144 147
352 351 349 348 346 344 342 340 338 337 335 333 329 329 327 325 324 324 322 320 319 318 317 318 316 318 318 319 316 316 309 294 283 272 266 140 146 143 151 171 180 174 186 207 213 212 209 200 205 213 217 245 229 244 218 241 196 201 122 134 239 254 266 300 225 120 148 121 135 174 152 131 136 146 193 142 129 158 138 143 135 122 129 134 139 147 146 149
351 349 348 347 345 343 341 339 337 336 331 330 327 325 324 323 321 321 320 317 316 315 315 315 315 316 318 315 317 313 290 283 284 267 109 137 141 150 168 165 187 191 210 227 224 223 213 227 218 208 225 226 250 247 239 204 223 153 193 187 225 287 27 267 241 123 98 145 119 134 158 121 174 121 211 118 150 164 134 150 140 138 138 140 146 149 153 152
350 349 347 345 344 342 339 337 336 331 329 326 325 323 321 320 319 317 316 314 313 313 313 312 315 316 316 311 310 298 298 290 97 98 127 127 132 152 164 181 182 203 216 228 238 235 221 223 224 215 227 241 239 245 241 247 218 296 267 142 210 243 250 343 322 84 95 92 142 126 207 132 124 140 203 155 174 163 148 149 138 142 143 145 149 154 158 155
349 347 345 344 342 339 336 334 331 328 326 325 322 320 319 318 317 316 313 312 311 310 309 311 313 316 313 312 304 284 277 300 41 147 140 150 146 165 178 177 189 211 216 233 237 232 224 223 229 219 216 237 251 246 217 222 239 227 193 183 206 186 42 271 214 164 148 183 148 158 97 110 199 127 220 107 268 127 134 142 133 144 145 152 152 157 160 160
347 346 344 342 339 336 334 331 329 327 325 323 321 319 318 315 315 313 312 310 308 307 308 309 313 316 313 300 271 251 256 263 271 160 156 162 166 163 173 173 165 210 219 224 228 233 216 226 223 227 226 231 238 255 270 236 191 221 268 180 214 187 198 215 222 167 187 188 191 112 146 186 160 156 135 146 339 116 128 135 135 140 149 151 154 166 160 162
346 344 343 340 337 334 332 330 327 325 322 320 319 318 316 313 312 311 309 308 306 304 306 308 312 312 319 306 265 239 240 255 261 150 138 152 167 165 162 172 181 194 214 220 217 224 220 219 223 224 236 233 220 231 246 276 286 244 211 176 265 204 228 216 219 205 207 200 120 163 176 136 187 142 194 141 129 113 129 132 139 145 149 156 159 164 165 164
344 342 341 338 336 333 331 329 327 324 322 319 319 316 313 313 311 308 306 305 303 303 304 306 306 307 303 288 277 286 270 266 120 149 155 166 177 170 169 176 182 192 211 220 225 226 226 217 227 230 230 227 252 265 235 233 221 240 279 280 218 207 198 210 220 241 208 198 167 152 201 138 203 121 201 137 128 138 125 133 143 145 155 158 163 166 164 167
343 340 338 336 334 331 329 327 326 324 322 321 317 315 313 309 308 305 304 303 299 298 302 302 297 297 276 250 265 260 268 265 153 152 174 171 169 173 194 204 173 198 212 216 220 229 225 226 225 225 247 264 253 230 260 257 274 267 236 215 226 253 212 222 242 213 232 183 157 199 168 171 138 189 148 146 135 157 140 138 144 150 156 162 164 165 164 170
341 338 335 334 332 330 328 327 325 324 322 319 316 313 311 309 306 304 302 299 296 296 298 294 292 273 252 232 259 259 253 246 258 182 173 194 167 203 208 215 179 202 213 212 220 221 232 239 234 242 241 245 243 264 265 259 258 251 278 321 270 200 250 292 235 223 275 193 157 183 182 174 148 225 149 154 146 165 139 149 148 153 163 162 165 166 161 175
338 336 334 332 331 330 329 326 324 323 321 318 314 311 308 308 305 303 300 297 295 292 289 285 272 260 264 261 246 242 262 291 304 235 197 194 213 215 223 218 191 210 210 223 217 221 228 237 241 242 243 198 248 272 260 268 269 283 287 271 264 295 258 215 246 267 201 249 167 173 171 193 160 216 164 152 145 171 147 152 154 157 164 161 169 162 166 177
337 336 334 332 331 329 327 325 324 323 320 316 314 310 308 306 305 302 298 295 289 287 284 282 263 243 263 258 240 245 256 269 270 267 244 196 221 228 234 237 225 212 222 232 231 221 229 232 236 244 243 258 251 225 240 227 245 249 252 245 257 251 232 217 215 240 225 223 167 155 204 200 180 175 182 144 154 171 154 155 166 157 166 163 170 165 168 178
337 336 334 333 332 330 327 325 323 320 317 315 312 309 306 304 302 299 295 285 284 280 275 258 253 252 240 253 272 262 253 236 244 243 244 218 220 224 224 230 232 234 226 237 242 242 225 224 240 245 251 244 247 257 260 276 291 267 235 239 263 255 250 218 208 203 246 178 171 155 198 208 184 170 170 148 158 176 165 159 170 163 164 166 173 167 174 177
337 336 335 333 331 328 326 324 322 318 316 314 311 306 304 303 299 296 291 286 268 269 255 240 231 241 224 258 257 252 249 267 269 247 241 226 217 234 233 224 225 229 227 226 237 241 246 230 224 234 234 240 258 266 263 253 228 241 256 225 218 241 238 231 180 225 239 135 191 172 157 224 224 171 173 157 161 180 172 165 170 169 169 167 177 167 175 180
338 336 334 334 330 328 326 325 322 319 316 314 312 306 301 295 292 292 287 280 286 303 205 215 204 226 285 284 276 37 216 224 232 238 240 241 216 229 226 224 223 223 224 220 229 231 229 244 230 222 236 231 237 239 252 255 240 224 239 247 231 211 234 220 175 197 206 135 215 192 184 173 229 183 182 158 166 185 171 176 173 172 177 168 181 172 175 180
337 336 334 332 330 326 325 324 323 320 319 317 312 306 299 288 279 275 267 273 256 209 209 241 187 202 269 343 343 252 224 214 233 222 223 215 227 223 228 220 214 217 213 226 214 223 222 229 223 240 230 236 220 229 234 235 246 230 207 243 247 233 200 221 159 200 186 175 200 203 223 182 202 206 182 164 174 184 172 180 179 176 180 172 178 181 174 181
339 336 333 331 328 327 323 323 322 320 319 318 314 303 294 284 284 278 228 225 220 205 229 248 280 271 250 250 263 248 242 225 201 220 206 189 225 230 233 212 207 217 207 217 210 218 208 218 211 227 215 220 225 215 221 224 227 227 218 218 234 254 238 185 173 163 212 168 219 186 229 202 166 166 180 170 178 183 179 181 181 184 179 174 180 188 178 182
338 335 330 327 327 326 322 321 322 320 320 318 304 292 270 270 246 222 207 167 181 184 221 193 196 190 232 97 219 244 242 197 169 202 175 202 186 232 231 214 208 207 208 210 193 214 196 224 209 223 221 210 216 219 217 225 225 235 226 217 228 239 217 236 188 186 198 188 209 205 201 209 218 169 174 174 183 188 185 181 182 187 180 177 182 189 187 182
334 333 330 325 324 325 322 320 320 318 324 327 329 330 298 229 209 174 211 210 230 245 278 289 194 231 270 284 282 201 19 113 197 193 192 200 211 202 234 199 209 215 211 209 192 202 196 210 210 212 217 217 215 221 226 224 236 243 246 236 221 227 227 217 245 207 179 217 202 210 207 205 206 183 168 183 184 196 194 189 187 184 182 183 187 188 194 184
333 333 330 326 324 324 323 321 317 316 319 313 304 301 342 5 339 322 339 288 262 251 257 267 257 247 252 267 263 208 199 185 218 188 216 179 217 206 208 202 213 210 214 212 219 181 218 215 218 216 217 223 220 219 228 234 228 241 250 248 246 224 241 215 249 199 176 203 197 203 224 210 204 193 161 207 241 196 201 201 191 187 186 184 185 190 193 190
333 332 329 327 324 324 323 321 317 312 315 286 270 289 318 42 354 328 321 298 275 265 259 255 257 258 254 253 260 274 272 244 193 222 207 207 199 218 175 206 210 218 202 214 218 196 210 222 217 217 218 220 230 223 222 230 230 231 244 250 247 239 229 223 221 218 177 193 204 192 214 214 211 185 166 199 213 208 203 207 196 187 188 186 183 190 189 196
330 330 330 327 324 322 323 320 315 312 308 290 271 292 337 348 342 334 311 281 278 257 250 247 248 249 249 244 240 238 249 244 238 191 208 196 217 213 209 199 216 219 209 209 216 209 212 221 221 217 218 217 222 230 219 222 231 233 232 243 250 249 226 217 244 223 174 181 205 189 209 215 215 195 184 203 206 213 210 207 202 190 193 188 190 189 189 194
328 330 329 327 325 322 321 319 311 295 269 291 292 283 352 332 326 338 316 283 294 282 236 236 229 233 234 228 216 227 227 231 237 229 189 197 219 194 231 209 217 220 221 211 217 226 220 218 215 220 218 218 220 220 227 220 221 229 238 234 237 244 231 245 222 217 160 177 223 194 210 218 217 213 209 200 208 206 203 208 210 197 190 195 195 190 186 193
326 327 328 326 328 323 321 316 306 350 331 309 291 23 339 333 336 344 313 288 241 256 222 240 231 230 227 220 219 213 218 231 228 230 213 199 207 206 215 226 224 223 226 222 218 230 234 219 212 212 219 218 220 221 222 222 224 226 228 240 241 243 255 218 230 232 168 186 186 207 214 222 210 228 219 204 210 203 199 201 206 201 194 184 200 189 181 194
325 324 327 326 326 331 316 302 39 339 319 298 8 348 352 328 349 328 303 277 283 277 189 213 163 220 203 203 205 217 212 228 216 220 226 199 209 222 195 226 212 228 220 230 226 228 236 225 219 213 214 218 219 223 219 220 230 225 220 221 243 249 241 247 246 221 206 201 188 199 231 233 211 222 224 217 208 216 191 201 208 202 200 188 192 198 193 193
325 322 323 326 323 339 338 336 339 319 308 22 4 342 330 323 349 317 286 240 268 209 190 106 172 103 197 186 193 178 214 220 205 210 218 202 203 201 236 213 212 236 238 222 235 227 213 232 219 217 212 218 219 220 216 221 225 232 226 217 222 241 249 235 243 238 230 212 217 209 212 246 232 214 218 217 222 213 210 203 217 205 201 206 196 196 196 194
322 319 319 324 320 323 270 291 305 303 296 318 337 326 320 331 314 277 254 314 266 128 154 162 306 125 238 166 180 192 203 36 195 198 207 198 203 186 224 224 220 214 222 231 233 223 221 217 231 213 216 215 223 219 215 220 227 229 226 235 221 221 242 254 245 239 229 215 208 197 194 224 234 220 219 218 222 214 209 201 211 211 200 204 209 196 192 207
317 316 315 322 321 303 280 236 270 278 288 318 316 315 319 310 291 299 273 256 358 305 72 172 128 184 215 174 189 206 216 222 264 167 192 206 194 211 201 230 234 226 218 230 241 232 222 230 221 231 209 223 221 223 224 217 226 225 237 233 243 229 218 237 251 246 240 241 244 209 198 234 236 237 238 213 221 219 218 215 213 201 205 193 202 208 204 198
315 312 314 320 321 298 313 286 255 260 272 279 296 309 308 293 268 233 220 253 142 247 178 99 187 176 191 180 198 199 216 207 235 150 183 201 179 209 229 218 235 238 233 219 240 248 250 202 233 228 225 223 220 219 222 223 227 232 225 243 238 244 237 211 224 242 250 250 247 241 209 209 240 223 224 227 214 223 221 211 216 208 198 192 200 206 208 193
313 311 310 317 301 311 310 280 260 273 329 332 319 304 287 260 241 223 235 232 214 256 105 147 189 169 185 192 197 196 213 212 203 181 180 190 181 197 219 217 223 241 239 239 223 232 246 253 206 222 230 234 236 225 218 225 222 223 225 221 239 243 248 251 227 215 239 244 252 244 236 209 229 217 219 212 224 222 224 218 204 206 198 197 199 202 196 190
313 311 306 309 279 273 255 261 296 332 314 321 312 294 259 238 216 225 224 107 264 207 208 183 207 186 192 198 210 188 199 210 208 177 192 183 188 191 202 218 188 213 224 223 229 215 230 234 241 207 212 235 218 224 221 220 217 218 225 224 220 224 230 235 235 228 218 236 235 243 238 238 226 230 239 200 208 221 220 215 206 204 200 197 196 187 179 183
314 311 306 294 277 238 230 246 276 285 294 283 283 271 234 226 235 213 235 239 243 286 178 207 207 199 196 202 213 198 195 209 198 188 202 188 208 197 203 216 198 209 218 208 230 218 221 230 235 231 203 215 230 207 215 214 207 216 217 217 218 216 216 230 230 244 237 219 233 245 237 247 252 226 211 213 206 216 214 213 207 201 196 196 174 178 190 191
314 310 305 287 278 264 258 244 245 256 277 282 251 240 238 232 234 198 226 222 253 252 351 277 231 202 203 208 207 206 192 208 199 198 193 201 203 207 202 209 222 202 231 218 216 216 223 205 221 226 210 199 219 224 212 223 201 217 220 218 222 223 219 217 223 226 228 244 236 229 245 235 233 216 214 204 201 201 207 214 212 187 189 199 178 189 192 190
312 300 283 281 268 250 239 236 245 244 246 252 229 227 220 230 239 228 228 233 228 268 275 264 259 245 206 214 214 212 220 191 209 203 199 209 203 215 201 203 208 227 200 235 211 225 226 238 206 216 236 191 216 212 221 219 230 210 216 221 224 224 218 240 219 232 233 225 235 237 230 218 256 309 233 219 201 195 202 208 194 195 206 208 190 182 187 188
306 309 307 282 275 270 246 204 214 221 225 229 231 222 228 222 226 219 255 251 248 252 256 262 254 243 242 215 211 230 205 244 183 215 204 209 215 210 215 204 203 208 216 213 212 223 219 232 210 194 219 223 206 206 208 221 228 204 208 216 223 221 229 232 259 257 229 230 243 228 234 220 209 237 256 230 220 213 199 206 193 193 203 218 195 173 180 183
319 311 304 294 280 270 265 173 185 205 221 236 231 235 234 242 245 266 246 245 261 261 250 253 236 235 234 232 216 208 219 209 218 198 218 198 216 219 208 217 204 200 217 223 218 238 245 220 212 215 202 216 208 204 211 209 238 238 213 213 220 230 231 232 239 234 247 244 230 232 238 234 231 226 194 225 217 213 215 212 191 183 203 214 174 173 179 181
311 301 290 279 266 255 251 182 192 205 228 231 236 245 255 253 239 248 270 281 284 275 274 252 255 248 230 238 227 212 208 220 205 217 221 199 230 199 218 216 207 209 203 217 245 208 230 264 213 206 224 197 196 203 212 218 218 237 240 186 217 196 212 216 244 228 224 229 252 228 229 243 240 232 204 201 216 191 199 209 220 190 189 212 182 173 171 184
293 288 286 315 74 203 176 136 214 227 226 235 239 248 238 256 273 272 265 274 276 278 269 267 268 237 252 231 238 234 212 214 215 216 226 201 224 186 213 213 210 205 203 204 221 242 224 238 250 209 207 185 186 196 218 205 212 228 243 247 207 236 215 222 220 245 232 239 232 235 236 234 226 249 234 207 209 188 189 193 211 222 199 196 199 176 181 183
297 307 285 278 246 88 105 218 240 231 235 238 242 247 263 257 244 252 265 266 273 274 262 261 255 266 250 252 235 240 224 221 217 220 218 205 230 191 211 199 224 199 203 200 214 216 239 225 246 220 193 192 197 194 212 208 199 208 225 234 238 210 221 237 225 219 219 231 243 247 228 228 237 239 240 247 203 178 189 202 184 220 236 202 206 189 182 175
318 288 279 279 281 134 210 235 240 238 240 246 253 262 260 256 256 253 249 255 264 258 266 271 268 253 258 259 248 243 252 226 219 221 211 224 215 212 210 211 200 224 193 201 208 204 228 220 229 242 212 201 215 193 206 211 209 211 217 228 231 227 195 213 228 211 212 218 233 235 244 246 217 225 236 253 182 172 190 218 187 194 219 246 248 216 158 155
295 276 267 332 335 207 241 256 243 239 248 248 248 247 248 252 264 268 271 263 255 260 250 258 261 270 265 257 262 251 247 252 235 224 212 223 209 233 185 212 207 211 212 199 202 202 218 220 230 225 240 220 208 211 194 209 216 218 212 221 223 235 240 216 225 218 214 225 231 239 256 238 234 187 214 252 220 204 188 207 204 187 209 221 238 226 160 170
293 278 302 302 302 309 288 267 266 262 254 257 262 256 262 266 268 258 249 252 261 254 255 250 251 252 251 263 256 257 259 251 248 247 229 207 228 213 233 211 217 201 220 202 198 203 196 226 218 234 233 256 236 211 201 196 211 225 222 220 214 222 227 237 229 214 234 223 226 224 226 236 239 272 253 238 255 215 188 194 226 210 196 214 213 219 158 157
294 296 293 281 285 278 258 252 253 247 253 256 255 260 258 263 254 250 253 254 247 245 249 255 245 244 259 251 255 265 266 268 251 253 249 246 221 211 212 223 203 220 198 204 207 172 214 196 238 214 215 224 256 230 202 201 204 217 227 218 223 223 226 236 247 224 224 227 235 224 231 215 216 261 233 260 213 219 199 179 200 236 207 209 210 143 154 157
297 282 259 264 268 250 246 244 250 262 257 262 265 255 246 239 239 253 262 251 247 251 256 249 255 254 241 243 258 255 253 259 275 260 264 249 258 202 214 219 186 225 200 212 335 176 211 188 197 226 211 205 216 224 196 194 212 210 218 233 225 228 224 222 230 238 248 214 232 238 233 228 207 193 225 237 218 190 219 192 232 238 250 188 147 145 147 159
295 297 305 296 276 247 237 240 258 261 262 260 267 289 312 310 305 279 252 244 252 255 249 256 253 256 254 242 236 245 254 253 254 265 258 252 247 233 237 234 185 199 217 161 337 207 207 214 204 215 233 220 220 244 225 194 206 217 206 215 231 227 231 230 232 235 239 242 240 235 257 270 234 193 204 220 238 210 162 176 226 249 197 197 243 136 161 160
290 273 292 299 315 292 282 254 242 243 273 348 304 321 293 303 308 301 315 271 255 273 270 256 247 238 247 259 250 244 243 250 252 255 256 266 254 244 222 242 224 181 228 206 272 236 222 216 213 205 223 245 232 214 236 215 211 216 219 210 215 235 229 228 226 229 229 243 242 232 240 252 263 264 219 203 215 240 235 185 184 230 293 208 210 208 143 163
264 271 279 307 298 294 299 293 299 302 260 280 284 306 286 290 289 298 309 301 265 296 348 294 259 249 244 244 260 256 245 244 243 247 250 250 271 247 243 221 219 187 204 233 234 226 232 237 219 217 215 224 241 247 227 234 225 220 224 224 212 213 236 236 228 234 225 228 242 229 218 236 253 255 260 257 213 227 232 194 192 197 224 231 167 155 145 160
269 284 279 292 278 296 290 297 295 292 292 276 273 277 284 276 281 282 292 310 319 318 357 304 330 345 334 321 306 286 265 244 235 239 249 250 242 252 244 237 232 203 181 221 222 222 234 234 244 231 226 213 220 236 247 245 237 233 219 216 224 221 217 232 244 232 231 241 241 235 221 238 230 240 257 261 273 261 229 175 183 191 200 230 154 172 202 167
270 287 302 327 307 294 294 290 286 289 275 278 276 249 253 267 271 284 284 282 288 311 326 343 344 336 324 318 320 316 357 337 335 304 269 265 253 241 252 251 223 216 214 210 227 213 237 217 235 243 243 237 222 218 230 243 251 249 256 248 242 227 219 217 226 240 240 236 242 246 240 242 243 244 236 249 261 269 266 240 220 203 198 210 216 205 205 188
272 282 281 295 301 292 301 295 290 279 281 264 259 264 249 239 255 264 278 292 296 292 306 351 352 332 314 314 309 328 351 336 329 324 321 317 301 283 258 225 252 224 204 215 217 219 210 237 217 228 245 236 242 231 211 225 236 245 251 241 234 248 245 210 208 225 241 249 242 228 228 234 232 228 237 234 220 244 259 258 259 240 215 209 217 208 216 180
292 293 291 265 271 282 288 288 288 283 266 269 268 272 285 283 255 249 270 272 269 281 287 322 313 305 292 307 318 332 333 324 315 309 301 296 291 283 286 267 231 246 219 204 212 215 211 219 224 219 230 237 235 238 230 221 225 232 231 235 244 244 248 276 256 217 222 241 251 253 249 247 237 228 229 232 243 223 236 252 255 252 240 232 221 211 220 195